Probability
0 0 0 0 0 0 0 0 0 0 0 0 0 0 0 0 0 0 0 0 0 0 0 0 0 0 0 0 0 0 0 0 0 0 0 0 0 0 0 0 0 0 0
0 0 0 0 0 0 0 0 0 0 0 0 0 0 0 0 0 0 0 0 0 0 0 0 0 0 0 0 0 0 0 0 0 0 0 0 0 0 0 0 0 0 0
0 0 0 0 0 0 0 0 0 0 0 0 0 0 0 0 0 0 0 0 0 0 0 0 0 0 0 0 0 0 0 0 0 0 0 0 0 0 0 0 0 0 0
0 0 0 0 0 0 0 0 0 0 0 0 0 0 0 0 0 0 0 0 0 0 0 0 0 0 0 0 0 0 0 0 0 0 0 0 0 0 0 0 0 0 0
0 0 0 0 0 0 0 0 0 0 0 0 0 0 0 0 0 0 0 0 0 0 0 0 0 0 0 0 0 0 0 0 0 0 0 0 0 0 0 0 0 0 0
0 0 0 0 0 0 0 0 0 0 0 0 0 0 0 0 0 0 0 0 0 0 0 0 0 0 0 0 0 0 0 0 0 0 0 0 0 0 0 0 0 0 0
0 0 0 0 0 0 0 0 0 0 0 0 0 0 0 0 0 0 0 0 0 0 0 0 0 0 0 0 0 0 0 0 0 0 0 0 0 0 0 0 0 0 0
0 0 0 0 0 0 0 0 0 0 0 0 0 0 0 0 0 0 0 0 0 0 0 0 0 0 0 0 0 0 0 0 0 0 0 0 0 0 0 0 0 0 0
0 0 0 0 0 0 0 0 0 0 0 0 0 0 0 0 0 0 0 0 0 0 0 0 0 0 0 0 0 0 0 0 0 0 0 0 0 0 0 0 0 0 0
0 0 0 0 0 0 0 0 0 0 0 0 0 0 0 0 0 0 0 0 0 0 0 0 0 0 0 0 0 0 0 0 0 0 0 0 0 0 0 0 0 0 0
0 0 0 0 0 0 0 0 0 0 0 0 0 0 0 0 0 0 0 0 0 0 0 0 0 0 0 0 0 0 0 0 0 0 0 0 0 0 0 0 0 0 0
0 0 0 0 0 0 0 0 0 0 0 0 0 0 0 0 0 0 0 0 0 0 0 0 0 0 0 0 0 0 0 0 0 0 0 0 0 0 0 0 0 0 0
0 0 0 0 0 0 0 0 0 0 0 0 0 0 0 0 0 0 0 0 0 0 0 0 0 0 0 0 0 0 0 0 0 0 0 0 0 0 0 0 0 0 0
0 0 0 0 0 0 0 0 0 0 0 0 0 0 0 0 0 0 0 0 0 0 0 0 0 0 0 0 0 0 0 0 0 0 0 0 0 0 0 0 0 0 0
0 0 0 0 0 0 0 0 0 0 0 0 0 0 0 0 0 0 0 0 0 0 0 0 0 0 0 0 0 0 0 0 0 0 0 0 0 0 0 0 0 0 0
0 0 0 0 0 0 0 0 0 0 0 0 0 0 0 0 0 0 0 0 0 0 0 0 0 0 0 0 0 0 0 0 0 0 0 0 0 0 0 0 0 0 0
0 0 0 0 0 0 0 0 0 0 0 0 0 0 0 0 0 0 0 0 0 0 0 0 0 0 0 0 0 0 0 0 0 0 0 0 0 0 0 0 0 0 0
0 0 0 0 0 0 0 0 0 0 0 0 0 0 0 0 0 0 0 0 0 0 0 0 0 0 0 0 0 0 0 0 0 0 0 0 0 0 0 0 0 0 0
0 0 0 0 0 0 0 0 0 0 0 0 0 0 0 0 0 0 0 0 0 0 0 0 0 0 0 0 0 0 0 0 0 0 0 0 0 0 0 0 0 0 0
0 0 0 0 0 0 0 0 0 0 0 0 0 0 0 0 0 0 0 0 0 0 0 0 0 0 0 0 0 0 0 0 0 0 0 0 0 0 0 0 0 0 0
0 0 0 0 0 0 0 0 0 0 0 0 0 0 0 0 0 0 0 0 0 0 0 0 0 0 0 0 0 0 0 0 0 0 0 0 0 0 0 0 0 0 0
0 0 0 0 0 0 0 0 0 0 0 0 0 0 0 0 0 0 0 0 0 0 0 0 0 0 0 0 0 0 0 0 0 0 0 0 0 0 0 0 0 0 0
0 0 0 0 0 0 0 0 0 0 0 0 0 0 0 0 0 0 0 0 0 0 0 0 0 0 0 0 0 0 0 0 0 0 0 0 0 0 0 0 0 0 0
0 0 0 0 0 0 0 0 0 0 0 0 0 0 0 0 0 0 0 0 0 0 0 0 0 0 0 0 0 0 0 0 0 0 0 0 0 0 0 0 0 0 0
0 0 0 0 0 0 0 0 0 0 0 0 0 0 0 0 0 0 0 0 0 0 0 0 0 0 0 0 0 0 0 0 0 0 0 0 0 0 0 0 0 0 0
0 0 0 0 0 0 0 0 0 0 0 0 0 0 0 0 0 0 0 0 0 0 0 0 0 0 0 0 0 0 0 0 0 0 0 0 0 0 0 0 0 0 0
Wind_Speed
11 11 12 10 10 10 8 7 6 6 6 6 4 3 3 2 3 3 3 4 4 5 5 5 7 6 5 5 4 5 7 8 14 14 9 8 9 9 11 10 11 10 11
11 12 12 11 10 10 8 7 6 6 5 5 4 3 3 3 3 3 4 5 5 6 7 7 8 7 7 5 5 7 8 8 11 17 13 11 11 10 10 9 10 10 9
12 13 12 10 10 9 7 7 6 6 6 5 4 3 3 4 4 4 4 5 5 6 6 7 8 8 8 7 7 8 9 9 8 12 15 13 11 10 10 10 11 10 13
12 12 11 9 8 8 7 6 6 6 5 4 3 3 3 4 4 5 5 4 4 5 6 7 7 8 9 9 9 8 8 8 9 11 13 12 11 9 8 11 13 8 10
12 11 9 8 8 7 7 6 6 5 5 3 3 3 4 4 4 6 4 3 3 5 6 7 8 12 15 13 11 9 9 10 11 12 12 11 11 12 12 12 15 14 11
12 10 9 8 8 7 7 6 6 5 4 3 4 4 4 4 11 14 11 3 3 5 7 7 9 10 14 20 24 24 21 16 13 9 9 13 16 14 13 14 15 17 16
11 10 8 8 8 7 6 6 5 4 3 3 4 4 4 7 13 15 16 7 4 6 8 8 9 11 16 11 18 22 17 19 20 15 15 16 16 16 16 18 16 16 17
10 9 8 8 7 6 6 5 4 2 3 2 3 4 5 8 15 16 17 7 6 7 8 9 10 10 12 17 14 11 8 10 15 12 11 13 14 13 14 16 17 17 16
10 8 7 7 7 6 5 4 2 2 2 2 3 4 5 8 14 17 17 5 6 8 8 9 11 10 20 26 15 11 11 11 17 22 23 23 27 27 21 13 12 13 15
9 8 7 7 7 6 5 3 2 2 2 3 4 4 5 6 13 17 18 5 6 7 6 7 14 19 24 25 13 10 13 14 14 13 15 18 16 17 21 12 11 13 14
9 9 8 7 7 6 4 2 2 2 3 4 5 5 6 8 12 17 19 8 7 8 8 6 8 23 25 24 20 10 16 19 12 12 12 12 11 10 10 10 10 11 13
10 9 7 6 5 5 4 3 3 3 4 4 4 6 4 6 10 14 19 18 17 9 9 7 11 24 24 22 16 19 24 19 10 10 11 11 10 11 11 11 13 12 13
10 8 7 6 5 4 3 3 2 2 3 4 4 5 5 5 7 17 19 21 21 12 9 19 22 22 20 14 18 22 17 9 10 10 11 11 9 10 11 11 12 12 14
9 7 5 5 4 3 3 2 2 2 3 4 4 5 6 6 6 6 7 8 13 12 9 13 18 18 15 17 15 12 9 9 11 10 11 12 11 9 10 10 12 12 12
7 6 5 4 3 2 2 2 2 2 4 5 3 4 6 6 10 19 14 9 9 10 12 6 7 8 8 9 9 9 9 10 10 10 11 12 12 11 11 10 10 11 11
6 4 3 3 2 2 2 3 6 6 11 12 12 11 9 13 19 19 20 20 20 20 13 8 8 8 9 11 11 11 11 10 10 11 11 10 11 11 12 11 10 10 11
6 4 3 3 2 2 2 3 4 6 9 11 13 15 15 18 19 19 19 20 18 16 8 7 7 9 10 10 10 11 11 11 10 10 10 11 11 10 11 11 11 10 10
5 5 4 2 1 2 2 3 3 5 7 6 10 15 18 19 19 18 19 15 10 9 7 8 8 9 10 10 10 11 11 11 10 10 11 11 10 10 10 11 10 11 11
4 3 2 1 1 2 3 3 3 5 5 6 6 8 15 17 17 16 15 8 8 9 9 9 9 10 10 10 10 11 11 11 12 11 11 11 10 10 10 10 10 15 12
3 4 3 1 2 2 3 3 3 4 5 6 6 7 9 10 7 9 8 7 8 9 9 10 10 10 10 10 11 11 11 11 12 11 11 11 10 9 10 12 10 10 8
2 3 4 2 2 3 3 3 4 5 5 6 6 9 16 9 8 9 8 8 8 9 9 10 11 11 10 10 10 11 13 12 11 11 11 10 10 10 10 9 9 8 7
1 1 2 2 2 3 3 3 4 5 6 7 7 9 15 8 7 8 8 8 9 9 9 10 10 10 10 10 11 12 12 13 12 12 11 11 10 10 9 8 8 7 6
1 1 2 2 3 6 5 4 5 5 6 6 8 8 8 8 8 8 9 9 10 10 10 10 11 11 11 10 11 11 12 13 13 13 13 12 10 8 7 7 8 7 5
1 2 2 3 3 3 4 4 5 6 6 7 7 8 8 8 9 10 9 8 9 10 10 10 11 15 18 15 12 12 12 14 15 13 13 9 8 7 7 6 6 6 5
1 2 2 3 3 4 4 5 5 5 6 8 8 8 9 9 9 9 8 9 10 11 13 13 11 12 17 21 20 16 20 27 22 10 7 7 8 8 7 6 5 4 3
2 2 3 3 4 4 4 5 5 6 7 8 8 8 8 9 9 9 9 9 10 11 13 12 14 17 20 18 19 23 27 25 19 15 8 6 7 6 6 4 5 4 3
Wind_Direction
118 116 116 113 111 108 108 110 110 103 98 92 84 68 41 17 359 354 328 316 314 305 300 292 281 270 254 246 245 254 258 262 281 293 291 291 285 279 286 277 278 275 278
119 116 114 113 111 108 108 110 110 104 95 91 81 60 27 5 352 343 324 323 313 306 302 300 292 291 269 259 258 260 262 261 274 292 299 300 294 289 285 281 290 284 275
119 117 116 114 111 111 113 113 107 101 90 79 68 46 13 348 336 325 314 310 308 308 308 304 299 296 287 275 267 268 267 274 274 287 295 296 293 293 294 291 283 278 282
120 119 117 116 116 118 116 110 103 98 88 74 59 34 0 336 325 313 307 305 316 318 309 302 300 295 284 277 277 271 280 286 283 285 289 294 297 297 296 300 300 285 286
121 119 118 118 117 114 109 104 97 89 82 70 52 21 359 337 318 312 300 294 305 307 302 295 295 305 310 308 309 307 302 297 296 296 300 306 306 308 306 305 302 301 289
122 122 123 121 116 111 108 103 94 83 70 52 33 9 350 334 322 325 324 288 282 297 298 293 291 297 305 316 314 309 306 307 309 308 308 304 304 304 303 302 303 302 301
120 123 124 119 113 111 109 98 89 80 60 38 13 351 327 316 327 328 322 320 293 291 290 293 303 308 316 300 298 303 306 308 309 305 301 300 300 302 302 301 299 297 297
120 120 120 116 111 108 100 93 85 69 46 20 343 330 325 325 333 327 323 328 295 285 285 289 294 296 297 302 302 307 293 292 299 302 290 291 296 298 297 299 299 297 293
120 120 118 116 114 108 100 92 78 57 27 342 325 333 329 320 328 326 328 306 290 289 289 294 305 301 304 313 317 309 305 306 311 307 305 306 307 308 306 304 304 303 301
121 115 111 111 112 110 107 95 73 56 355 338 333 327 316 307 320 328 328 303 297 298 295 294 312 315 313 320 320 315 315 310 310 314 313 308 301 298 304 303 301 299 300
111 106 102 105 110 113 105 96 75 36 5 349 328 317 310 312 324 328 328 326 314 316 317 312 305 317 320 324 326 319 308 316 323 317 308 303 301 301 302 297 292 291 295
107 104 103 104 107 108 102 84 58 29 1 337 321 315 300 301 320 324 330 330 328 321 317 312 310 321 327 328 327 317 321 328 319 308 306 307 307 304 303 301 296 290 282
106 107 108 101 89 88 81 61 36 10 345 319 311 306 308 307 314 326 328 328 328 325 313 316 321 327 330 328 319 323 329 321 310 310 310 306 299 293 300 303 302 296 290
113 113 111 104 89 67 50 31 15 340 319 306 302 308 309 313 309 306 306 315 323 321 311 315 325 327 327 323 322 322 316 310 314 311 307 305 304 303 307 310 311 313 310
112 112 105 95 87 55 24 353 329 282 281 308 300 302 318 315 317 325 329 324 324 319 325 323 321 324 324 322 320 318 318 319 317 310 307 308 309 311 311 312 308 310 310
117 111 102 92 71 46 8 335 324 320 324 328 329 327 320 320 324 329 331 331 333 332 335 325 322 322 321 321 320 319 317 315 313 310 306 305 307 309 310 311 310 310 311
113 109 94 74 51 17 349 330 321 323 324 330 334 333 331 329 330 333 335 336 336 337 332 320 319 319 317 315 314 312 311 310 308 305 304 304 304 305 307 309 312 313 312
92 86 83 64 23 341 319 307 304 314 322 322 329 331 332 331 332 337 340 341 332 334 325 320 317 315 313 312 311 310 308 309 308 307 304 303 303 304 306 307 308 310 312
83 72 68 38 349 318 305 301 301 306 309 311 313 321 330 328 331 337 344 336 324 324 323 319 314 311 310 309 308 306 304 304 304 304 302 301 302 303 303 303 304 309 314
63 48 53 16 330 312 307 307 310 311 312 313 316 320 319 323 331 332 333 325 322 319 319 315 311 308 308 306 305 305 305 304 304 302 300 301 301 300 300 302 303 307 310
62 17 4 355 321 311 307 308 312 312 312 313 312 316 327 333 325 319 321 321 320 318 316 313 308 306 305 304 303 303 302 301 300 299 299 299 299 299 298 298 299 303 309
57 352 326 313 312 311 311 316 313 310 311 311 311 315 326 327 314 315 317 317 317 314 310 306 302 300 300 301 302 302 301 299 300 300 299 298 296 294 294 296 304 312 314
38 346 332 330 325 324 326 315 312 308 306 307 311 317 320 319 317 315 314 315 314 309 306 303 300 300 300 300 298 295 293 294 294 292 292 292 292 292 296 306 314 320 321
25 352 337 327 316 309 310 309 310 310 311 310 311 313 315 316 314 312 312 308 307 304 302 301 298 298 301 304 303 300 293 292 291 287 290 298 305 306 307 312 318 325 327
18 350 333 318 309 306 307 303 300 301 308 313 313 313 313 311 309 308 306 305 304 303 303 304 301 302 305 307 306 303 302 307 313 319 318 312 307 307 310 316 324 336 348
354 334 317 305 298 296 297 299 302 309 311 309 307 306 307 307 307 306 305 304 305 306 305 304 304 307 308 307 305 307 311 318 330 342 339 313 311 315 323 324 340 355 7